Flag for Germany Weather past 2 weeks in Idar-Oberstein, Rhineland-Palatinate, Germany

Now
41 °F

Partly sunny.


Feels Like: 33 °F
Forecast: 40 / 52 °F
Wind: 16 mph from West

Location: Hahn

Current Time: Oct 22, 2014 at 11:42:23 AM

Latest Report: Oct 22, 2014 at 11:20 AM


Visibility: N/A

Pressure: 30.04 "Hg

Humidity: 93%

Dew point: 39 °F

Location of Idar-ObersteinLocation

Historic Weather in Idar-Oberstein — Graph

°F

Idar-Oberstein temperature yesterday

Maximum temperature yesterday: 52 °F (at 12:20 PM)
Minimum temperature yesterday: 39 °F (at 8:50 PM)
Average temperature yesterday: 48 °F

Past Weeks' High & Low Weather Summary

 TemperatureHumidityPressure
High66 °F (Oct 19, 1:20 PM)100% (Oct 7, 5:20 PM)30.18 "Hg (Oct 7, 5:20 PM)
Low39 °F (Oct 21, 8:50 PM)63% (Oct 15, 2:20 PM)29.56 "Hg (Oct 21, 4:56 PM)
Average54 °F92%29.89 "Hg
* Reported Oct 7 10:20 AM — Oct 22 10:50 AM, Idar-Oberstein, Weather by CustomWeather, © 2014

Note: Actual official high and low records may vary slightly from our data, if they occured in-between our weather recording intervals... More about our weather records

Advertising

Idar-Oberstein weather history for previous 24 hours

 ConditionsComfort  
Time TempWeatherWind HumidityBarometerVisibility
10:50 AM
Oct 22
39 °FLight rain. Partly sunny.15 mph93%30.04 "HgN/A
10:20 AM39 °FLight rain. Partly sunny.15 mph93%30.04 "HgN/A
9:50 AM39 °FLight rain. Partly sunny.16 mph93%30.04 "HgN/A
9:20 AM39 °FLight rain. Partly sunny.17 mph93%30.01 "HgN/A
8:50 AM39 °FLight rain. Passing clouds.13 mph93%30.01 "HgN/A
8:20 AM39 °FLight rain. Passing clouds.17 mph93%29.98 "HgN/A
7:50 AM39 °FLight rain. Passing clouds.17 mph93%29.98 "HgN/A
7:20 AM39 °FPassing clouds.18 mph93%29.95 "HgN/A
6:50 AM39 °FPassing clouds.18 mph93%29.95 "HgN/A
6:20 AM39 °FPartly cloudy.17 mph93%29.95 "HgN/A
5:56 AM39 °FPassing clouds.17 mph100%29.92 "HgN/A
5:50 AM39 °FLight rain. Passing clouds.15 mph100%29.92 "Hg5 mi
5:20 AM39 °FHeavy rain. Passing clouds.16 mph93%29.92 "Hg4 mi
4:50 AM41 °FRain showers. Passing clouds.17 mph87%29.92 "Hg5 mi
4:20 AM41 °FRain showers. Passing clouds.22 mph87%29.92 "HgN/A
3:50 AM41 °FPassing clouds.21 mph87%29.92 "HgN/A
3:20 AM41 °FPassing clouds.22 mph87%29.92 "HgN/A
2:50 AM41 °FPassing clouds.21 mph87%29.92 "HgN/A
2:20 AM41 °FPassing clouds.22 mph87%29.89 "HgN/A
1:50 AM41 °FPassing clouds.20 mph87%29.89 "HgN/A
1:20 AM43 °FPassing clouds.18 mph81%29.89 "HgN/A
12:50 AM41 °FScattered showers. Passing clouds.21 mph93%29.89 "HgN/A
12:20 AM41 °FPassing clouds.20 mph93%29.89 "HgN/A
11:50 PM
Oct 21
41 °FPassing clouds.17 mph87%29.86 "HgN/A
11:20 PM41 °FPassing clouds.16 mph87%29.86 "HgN/A
10:50 PM41 °FPassing clouds.21 mph87%29.83 "HgN/A
10:20 PM41 °FPassing clouds.20 mph87%29.80 "HgN/A
9:56 PM41 °FPartly cloudy.20 mph87%29.80 "HgN/A
9:20 PM41 °FScattered showers. Passing clouds.22 mph93%29.77 "HgN/A
8:50 PM39 °FPassing clouds.17 mph93%29.74 "HgN/A
8:20 PM41 °FSprinkles. Partly cloudy.20 mph93%29.74 "HgN/A
8:00 PM41 °FSprinkles. Partly cloudy.30 mph93%29.74 "HgN/A
7:56 PM43 °FRain showers. Passing clouds.30 mph87%29.74 "HgN/A
7:20 PM46 °FScattered showers. Scattered clouds.22 mph82%29.68 "HgN/A
6:50 PM46 °FScattered showers. Scattered clouds.21 mph87%29.65 "HgN/A
6:20 PM46 °FSprinkles. Broken clouds.16 mph93%29.62 "HgN/A
5:50 PM48 °FSprinkles. Broken clouds.18 mph87%29.62 "HgN/A
5:20 PM52 °FRain showers. Fog.28 mph94%29.59 "Hg2 mi
4:56 PM52 °FRain. Fog.17 mph94%29.56 "Hg3 mi
4:20 PM52 °FLight rain. Partly sunny.18 mph94%29.62 "Hg4 mi
3:50 PM52 °FBroken clouds.14 mph94%29.62 "HgN/A
3:20 PM50 °FBroken clouds.16 mph100%29.65 "HgN/A
2:50 PM50 °FLight rain. Fog.16 mph94%29.68 "Hg3 mi
2:20 PM50 °FLight rain. Broken clouds.15 mph88%29.71 "HgN/A
1:50 PM52 °FSprinkles. Partly sunny.16 mph77%29.74 "HgN/A
1:20 PM52 °FPartly sunny.17 mph77%29.74 "HgN/A
12:50 PM52 °FBroken clouds.21 mph77%29.77 "HgN/A
12:20 PM52 °FPartly sunny.21 mph77%29.77 "HgN/A
11:50 AM50 °FBroken clouds.13 mph88%29.77 "HgN/A
11:20 AM50 °FBroken clouds.14 mph88%29.83 "HgN/A
Weather by CustomWeather, © 2014

See weather overviewHow to use our weather pages